contact:dominique.lefevre@mio.osupytheas.fr, maurice.libes@osupytheas.fr
Project:EMSO Ligure-ouest http://www.emso-fr.org/EMSO-France
Sensor Aquadopp, line 13 Serial AQD14315 
DOI : "https://doi.org/10.17882/74513; https://doi.org/10.17882/83244" 
Title:EMSO Ligure Ouest : Data ligne ALBATROSS capteur AQUADOPP - deploiement 2021
Id,Date,Profondeur,Latitude,Longitude,X_East,Y_North,Z_Up,Amplitude_X,Amplitude_Y,Amplitude_Z,Batterie,SoundSpeed,Heading,Pitch,Roll,Pressure,Temperature,Speed,Direction
, , m, degrees North, degrees East, m.s-1, m.s-1,m.s-1, 1, 1, 1, Volt, m.s-1, degree, degree, degree, dbar, degree_C, m.s-1, degree
07,2022-08-05T23:30:00,1500.0,42.79,6.0312,-0.053,-0.001,-0.004,47.0,48.0,47.0,13.1,1504.1,304.7,-0.4,0.5,1475.287,13.12,0.053,268.9
07,2022-08-06T00:00:00,1500.0,42.79,6.0312,-0.047,-0.008,0.014,47.0,47.0,49.0,13.1,1504.1,297.6,-0.3,0.8,1475.297,13.12,0.047,260.3
07,2022-08-06T00:30:00,1500.0,42.79,6.0312,-0.064,0.002,0.01,47.0,48.0,47.0,13.1,1504.1,314.5,-0.1,0.4,1475.332,13.12,0.064,271.8
07,2022-08-06T01:00:00,1500.0,42.79,6.0312,-0.061,-0.018,0.0,48.0,48.0,48.0,13.1,1504.1,296.9,-0.2,0.7,1475.315,13.12,0.063,253.6
07,2022-08-06T01:30:00,1500.0,42.79,6.0312,-0.062,-0.012,0.004,47.0,50.0,47.0,13.1,1504.1,305.7,-0.4,0.7,1475.318,13.12,0.063,259.0
07,2022-08-06T02:00:00,1500.0,42.79,6.0312,-0.057,-0.024,0.022,47.0,49.0,47.0,13.1,1504.1,297.0,-0.3,0.6,1475.25,13.12,0.061,247.2
07,2022-08-06T02:30:00,1500.0,42.79,6.0312,-0.056,-0.009,-0.004,46.0,48.0,47.0,13.1,1504.1,305.8,-0.3,0.6,1475.245,13.12,0.056,260.9
07,2022-08-06T03:00:00,1500.0,42.79,6.0312,-0.064,-0.024,0.003,48.0,48.0,47.0,13.1,1504.1,293.5,-0.2,0.5,1475.281,13.12,0.068,249.4
07,2022-08-06T03:30:00,1500.0,42.79,6.0312,-0.067,0.0,0.015,49.0,48.0,47.0,13.1,1504.1,306.9,-0.2,0.5,1475.268,13.12,0.066,270.0
07,2022-08-06T04:00:00,1500.0,42.79,6.0312,-0.059,-0.014,0.002,48.0,48.0,50.0,13.1,1504.0,298.0,-0.4,0.5,1475.218,13.11,0.06,256.7
07,2022-08-06T04:30:00,1500.0,42.79,6.0312,-0.068,-0.004,-0.003,47.0,48.0,48.0,13.1,1504.0,307.5,-0.4,0.5,1475.245,13.11,0.068,266.6
07,2022-08-06T05:00:00,1500.0,42.79,6.0312,-0.067,-0.006,0.004,47.0,51.0,47.0,13.1,1504.0,301.0,-0.4,0.5,1475.203,13.11,0.067,264.9
07,2022-08-06T05:30:00,1500.0,42.79,6.0312,-0.058,-0.01,-0.001,47.0,49.0,47.0,13.1,1504.0,307.8,-0.3,0.5,1475.2,13.11,0.058,260.2
07,2022-08-06T06:00:00,1500.0,42.79,6.0312,-0.066,0.0,0.002,50.0,49.0,47.0,13.1,1504.0,303.7,-0.3,0.6,1475.238,13.11,0.065,270.0
07,2022-08-06T06:30:00,1500.0,42.79,6.0312,-0.066,0.006,0.013,48.0,49.0,48.0,13.1,1504.0,306.4,-0.3,0.7,1475.156,13.11,0.066,275.2
07,2022-08-06T07:00:00,1500.0,42.79,6.0312,-0.066,-0.012,0.009,46.0,49.0,49.0,13.1,1504.0,302.2,-0.3,0.7,1475.186,13.11,0.067,259.7
07,2022-08-06T07:30:00,1500.0,42.79,6.0312,-0.064,-0.004,-0.001,47.0,48.0,48.0,13.1,1504.0,299.3,-0.5,0.5,1475.196,13.11,0.064,266.4
07,2022-08-06T08:00:00,1500.0,42.79,6.0312,-0.06,-0.018,0.016,46.0,49.0,48.0,13.1,1504.1,299.4,-0.3,0.4,1475.174,13.12,0.062,253.3
07,2022-08-06T08:30:00,1500.0,42.79,6.0312,-0.073,-0.001,0.007,47.0,49.0,47.0,13.1,1504.1,302.9,-0.5,0.6,1475.158,13.12,0.073,269.2
07,2022-08-06T09:00:00,1500.0,42.79,6.0312,-0.055,-0.008,0.015,48.0,49.0,49.0,13.1,1504.1,300.6,-0.3,0.6,1475.148,13.12,0.055,261.7
07,2022-08-06T09:30:00,1500.0,42.79,6.0312,-0.062,0.003,-0.003,47.0,48.0,51.0,13.1,1504.1,308.3,-0.2,0.5,1475.154,13.12,0.062,272.8
07,2022-08-06T10:00:00,1500.0,42.79,6.0312,-0.054,-0.007,-0.002,48.0,48.0,47.0,13.1,1504.1,296.9,-0.4,0.5,1475.162,13.12,0.054,262.6
07,2022-08-06T10:30:00,1500.0,42.79,6.0312,-0.063,0.001,-0.011,47.0,49.0,49.0,13.1,1504.1,316.6,-0.4,0.6,1475.213,13.12,0.063,270.9
07,2022-08-06T11:00:00,1500.0,42.79,6.0312,-0.048,-0.009,0.001,48.0,50.0,50.0,13.1,1504.1,302.4,-0.3,0.7,1475.178,13.12,0.048,259.4
07,2022-08-06T11:30:00,1500.0,42.79,6.0312,-0.043,-0.003,0.004,48.0,49.0,48.0,13.1,1504.1,301.9,-0.3,0.6,1475.206,13.12,0.043,266.0
07,2022-08-06T12:00:00,1500.0,42.79,6.0312,-0.058,-0.011,0.012,48.0,49.0,47.0,13.1,1504.1,305.9,-0.4,0.5,1475.224,13.12,0.059,259.3
07,2022-08-06T12:30:00,1500.0,42.79,6.0312,-0.053,-0.021,0.017,47.0,48.0,47.0,13.1,1504.1,300.3,-0.2,0.5,1475.213,13.12,0.057,248.4
07,2022-08-06T13:00:00,1500.0,42.79,6.0312,-0.045,0.006,0.001,47.0,48.0,47.0,13.1,1504.1,315.0,-0.3,0.6,1475.247,13.12,0.045,277.6
07,2022-08-06T13:30:00,1500.0,42.79,6.0312,-0.049,-0.015,0.006,46.0,49.0,47.0,13.1,1504.1,296.5,-0.2,0.6,1475.256,13.12,0.051,253.0
07,2022-08-06T14:00:00,1500.0,42.79,6.0312,-0.051,-0.01,0.01,47.0,48.0,49.0,13.1,1504.1,306.0,-0.5,0.7,1475.279,13.12,0.051,258.9
07,2022-08-06T14:30:00,1500.0,42.79,6.0312,-0.051,-0.002,0.01,46.0,48.0,47.0,13.1,1504.1,314.2,-0.1,0.4,1475.245,13.12,0.051,267.8
07,2022-08-06T15:00:00,1500.0,42.79,6.0312,-0.059,-0.003,0.009,46.0,48.0,47.0,13.1,1504.1,302.0,-0.3,0.5,1475.235,13.12,0.059,267.1
07,2022-08-06T15:30:00,1500.0,42.79,6.0312,-0.061,-0.007,0.02,48.0,49.0,47.0,13.1,1504.1,308.8,0.0,0.4,1475.238,13.12,0.061,263.5
07,2022-08-06T16:00:00,1500.0,42.79,6.0312,-0.05,-0.013,0.015,48.0,48.0,49.0,13.1,1504.1,294.1,-0.1,0.7,1475.241,13.12,0.051,255.4
07,2022-08-06T16:30:00,1500.0,42.79,6.0312,-0.057,-0.016,0.004,50.0,48.0,48.0,13.1,1504.1,297.0,-0.1,0.6,1475.251,13.12,0.059,254.3
07,2022-08-06T17:00:00,1500.0,42.79,6.0312,-0.051,-0.018,0.021,47.0,48.0,48.0,13.1,1504.1,296.2,-0.5,0.7,1475.199,13.12,0.054,250.6
07,2022-08-06T17:30:00,1500.0,42.79,6.0312,-0.053,-0.011,0.005,46.0,48.0,48.0,13.1,1504.0,299.6,-0.4,0.7,1475.208,13.11,0.054,258.3
07,2022-08-06T18:00:00,1500.0,42.79,6.0312,-0.056,0.007,0.028,48.0,48.0,49.0,13.1,1504.0,309.5,-0.4,0.5,1475.199,13.11,0.056,277.1
07,2022-08-06T18:30:00,1500.0,42.79,6.0312,-0.065,0.003,0.009,48.0,49.0,47.0,13.1,1504.0,312.4,-0.1,0.4,1475.18,13.11,0.065,272.6
07,2022-08-06T19:00:00,1500.0,42.79,6.0312,-0.049,0.003,0.016,48.0,48.0,48.0,13.1,1504.0,312.8,-0.1,0.5,1475.166,13.11,0.049,273.5
07,2022-08-06T19:30:00,1500.0,42.79,6.0312,-0.059,-0.014,0.02,49.0,48.0,49.0,13.1,1504.0,314.9,-0.3,0.8,1475.155,13.11,0.06,256.7
07,2022-08-06T20:00:00,1500.0,42.79,6.0312,-0.055,-0.003,0.01,48.0,49.0,47.0,13.1,1504.0,308.8,0.0,0.5,1475.143,13.11,0.055,266.9
07,2022-08-06T20:30:00,1500.0,42.79,6.0312,-0.057,-0.007,0.003,48.0,48.0,50.0,13.1,1504.0,304.0,-0.5,0.5,1475.163,13.11,0.057,263.0
07,2022-08-06T21:00:00,1500.0,42.79,6.0312,-0.043,0.001,0.01,46.0,47.0,47.0,13.1,1504.0,314.3,-0.4,0.4,1475.152,13.11,0.043,271.3
07,2022-08-06T21:30:00,1500.0,42.79,6.0312,-0.056,0.012,0.005,46.0,49.0,48.0,13.1,1504.0,320.7,-0.6,0.5,1475.16,13.11,0.057,282.1
07,2022-08-06T22:00:00,1500.0,42.79,6.0312,-0.06,0.0,0.013,48.0,48.0,48.0,13.1,1504.0,305.4,-0.3,0.8,1475.198,13.11,0.06,270.0
07,2022-08-06T22:30:00,1500.0,42.79,6.0312,-0.049,-0.005,-0.004,47.0,48.0,47.0,13.1,1504.0,311.4,-0.1,0.8,1475.186,13.11,0.049,264.2
07,2022-08-06T23:00:00,1500.0,42.79,6.0312,-0.053,0.005,0.003,48.0,47.0,46.0,13.1,1504.0,320.6,-0.2,0.4,1475.186,13.11,0.053,275.4
